This is the latest recevied weather packets stored in our database for station/object WA9AFM. If no packets are shown the sender has not sent any weather packets the latest 10 day(s).
| Time | Temp. | Humidity | Pressure | Rain* | Wind** | Luminosity | Snow |
|---|---|---|---|---|---|---|---|
| 1787968739 | 31.11° C | 37% | 1010 hPa | 0 mm | - | - | - |
| 1787967838 | 31.67° C | 37% | 1009.8 hPa | 0 mm | - | - | - |
| 1787966939 | 32.22° C | 36% | 1009.7 hPa | 0 mm | - | - | - |
| 1787966038 | 33.33° C | 35% | 1009.6 hPa | 0 mm | - | - | - |
| 1787965140 | 33.89° C | 34% | 1009.4 hPa | 0 mm | - | - | - |
| 1787964240 | 34.44° C | 32% | 1009.3 hPa | 0 mm | - | - | - |
| 1787963338 | 35° C | 31% | 1009.3 hPa | 0 mm | - | - | - |
| 1787962440 | 35° C | 28% | 1009.3 hPa | 0 mm | - | - | - |
| 1787961539 | 35.56° C | 27% | 1009.2 hPa | 0 mm | - | - | - |
| 1787960638 | 35.56° C | 26% | 1009.4 hPa | 0 mm | - | - | - |
| 1787959739 | 36.67° C | 26% | 1009.3 hPa | 0 mm | - | - | - |
| 1787958838 | 37.22° C | 25% | 1009.3 hPa | 0 mm | - | - | - |
| 1787957940 | 38.89° C | 24% | 1009.4 hPa | 0 mm | - | - | - |
| 1787957039 | 38.33° C | 24% | 1009.6 hPa | 0 mm | - | - | - |
| 1787956140 | 38.89° C | 24% | 1009.6 hPa | 0 mm | - | - | - |
| 1787955239 | 37.22° C | 24% | 1009.7 hPa | 0 mm | - | - | - |
| 1787954339 | 37.78° C | 24% | 1009.8 hPa | 0 mm | - | - | - |
| 1787953439 | 37.78° C | 25% | 1010 hPa | 0 mm | - | - | - |
| 1787952540 | 37.78° C | 24% | 1010.1 hPa | 0 mm | - | - | - |
| 1787951639 | 37.22° C | 25% | 1010.5 hPa | 0 mm | - | - | - |
| 1787950739 | 37.78° C | 24% | 1010.7 hPa | 0 mm | - | - | - |
| 1787949839 | 38.33° C | 24% | 1010.9 hPa | 0 mm | - | - | - |
| 1787948940 | 37.78° C | 25% | 1011.1 hPa | 0 mm | - | - | - |
| 1787948039 | 37.78° C | 24% | 1011.2 hPa | 0 mm | - | - | - |
| 1787947138 | 37.78° C | 23% | 1011.2 hPa | 0 mm | - | - | - |
* Rain latest hour (hover to see other rain measurements)
** Current wind speed in m/s (hover to see current wind gust speed)